Wind_Speed
4 3 2 2 3 5 7 7 8 11 12 11 10 9 8 7 5 4 5 6 7 8 7 7 7 8 9 10 10 10 9 9 10 11 12 12 12 13 13 13 14 15 16 16 16 15 15 14 14
5 3 0 2 2 3 5 6 7 9 9 9 9 9 8 8 6 5 4 4 6 6 6 5 6 7 8 8 9 9 8 8 8 9 9 9 9 10 10 11 12 12 13 13 13 13 13 12 12
6 5 4 2 2 1 3 5 6 7 6 7 7 7 7 7 7 6 4 4 4 4 3 4 5 6 6 7 7 7 7 7 6 6 6 6 6 7 8 9 10 10 10 11 10 10 10 10 9
9 8 6 4 3 3 2 3 5 5 4 4 5 7 8 8 8 8 8 7 6 5 5 5 5 5 6 6 6 6 6 6 5 5 4 4 4 5 6 7 8 8 8 8 9 9 8 7 7
12 10 8 6 5 5 4 3 4 3 2 3 5 7 8 9 9 10 11 10 9 9 9 8 8 7 7 6 5 4 5 5 5 5 4 4 4 5 6 7 8 9 9 9 9 9 9 8 8
16 14 11 9 8 7 6 4 4 1 1 3 5 6 7 7 8 9 9 10 10 10 10 10 9 9 8 7 5 4 4 5 5 5 6 6 7 8 9 10 11 11 12 11 10 10 10 10 10
19 18 15 12 11 10 9 6 5 3 1 2 3 4 5 6 7 7 7 8 9 10 10 11 10 10 9 8 7 6 6 6 6 7 8 9 11 12 13 13 14 15 15 14 13 12 12 11 11
22 21 18 15 13 12 10 9 6 3 1 2 2 3 3 4 6 7 8 8 8 9 10 10 11 10 10 10 10 9 9 10 10 11 12 14 15 16 17 17 17 17 18 18 17 16 15 14 14
24 22 20 17 15 13 12 11 8 4 4 3 1 2 4 6 8 10 12 13 13 12 11 11 11 12 12 13 14 15 15 16 16 17 17 18 19 19 20 20 20 20 20 20 20 20 19 19 17
25 25 22 19 17 15 13 12 11 6 5 4 3 3 7 11 13 15 16 17 18 18 17 17 16 17 17 18 19 20 21 22 22 23 23 23 23 24 24 25 25 24 24 23 23 24 23 23 21
27 27 25 22 19 17 15 14 13 11 9 9 9 9 11 15 18 21 22 22 22 23 23 23 23 23 23 24 25 26 26 27 27 28 28 28 28 29 29 29 30 29 29 28 28 27 27 27 26
26 29 27 24 21 20 18 17 16 15 14 15 16 17 18 21 24 25 26 26 26 26 27 27 28 28 29 29 30 30 30 31 32 32 32 32 33 33 33 33 33 34 34 34 33 32 31 30 30
24 27 26 24 23 22 22 22 20 20 20 20 21 23 25 27 28 29 29 29 29 29 30 31 32 33 33 34 34 34 34 34 35 36 36 37 37 37 37 37 36 37 38 38 38 37 36 35 34
26 25 25 25 26 26 26 26 25 24 26 27 27 28 30 31 31 31 31 30 30 31 31 32 33 34 35 36 37 38 38 38 38 39 40 41 41 41 40 39 37 37 38 38 38 39 39 38 37
30 28 28 30 31 31 31 30 29 29 31 32 33 33 34 34 33 33 32 31 31 32 32 32 32 32 33 34 35 37 38 39 39 39 39 41 41 41 40 39 38 39 39 38 38 38 38 38 38
35 34 34 35 35 35 34 33 32 34 35 36 37 36 36 36 34 33 31 30 30 30 30 30 29 30 30 30 31 32 34 35 36 36 37 38 40 40 40 40 39 40 41 40 39 38 38 37 37
37 37 38 39 40 39 38 37 37 38 39 39 38 37 36 34 31 29 29 29 30 30 31 30 30 29 28 29 29 30 31 33 35 37 38 39 40 41 41 41 40 40 41 41 41 41 41 40 39
34 37 39 40 41 41 41 40 39 38 38 38 37 35 32 29 27 28 30 32 33 33 33 33 31 29 29 29 30 30 32 34 35 37 38 39 40 41 42 42 42 42 41 41 42 42 42 42 41
30 33 35 37 38 39 39 38 37 36 35 34 32 30 28 28 29 31 32 34 35 35 34 33 31 30 30 30 30 31 32 33 35 36 37 38 38 39 40 40 40 40 40 39 39 40 41 40 40
27 30 32 34 34 34 35 35 35 34 33 31 30 30 30 31 32 33 34 34 34 34 33 33 32 30 30 30 31 32 33 35 36 37 38 39 39 39 39 39 39 38 38 37 37 38 38 37 38
23 26 29 30 31 31 32 32 32 33 32 32 32 32 33 34 34 33 33 33 31 32 32 32 32 31 31 31 31 31 32 33 35 36 38 40 41 41 40 40 40 40 39 38 38 37 37 36 37
21 23 25 27 27 28 30 32 31 32 34 35 36 36 37 36 34 33 30 28 29 31 31 32 32 30 29 28 28 28 29 30 32 34 36 37 39 40 41 41 41 41 41 40 39 38 38 37 37
20 21 23 24 25 26 29 32 32 33 36 37 38 37 34 32 29 26 25 26 28 30 31 31 29 27 25 24 23 23 25 27 29 32 34 35 37 38 39 40 41 41 42 41 40 39 38 38 37
14 16 18 18 18 20 22 23 24 26 28 29 29 29 28 27 25 23 23 25 28 29 30 28 25 23 22 21 21 22 24 26 28 30 33 34 35 37 37 38 39 41 41 42 41 40 39 38 38
12 13 14 14 14 15 17 18 18 20 21 22 22 23 24 24 24 24 24 25 26 27 27 25 24 23 23 23 24 25 26 28 29 31 33 35 35 35 35 36 37 38 40 41 41 41 40 39 38
13 14 15 15 14 14 17 18 17 19 20 21 22 23 24 24 24 23 23 23 25 26 26 25 24 25 26 27 29 30 31 32 33 33 34 36 36 35 34 33 34 36 37 38 40 40 41 40 39
13 13 14 15 15 15 16 17 18 20 21 21 22 22 22 22 22 21 22 24 25 27 28 29 29 30 32 33 34 36 37 37 37 36 36 37 37 36 35 33 32 32 34 35 37 38 39 39 40
12 13 14 16 18 18 17 19 21 21 22 24 25 24 24 24 24 25 26 28 30 32 33 34 35 35 36 37 38 39 40 41 41 40 39 38 37 36 36 34 31 30 30 31 33 34 35 36 37
14 14 15 17 19 21 20 21 22 23 25 28 29 29 29 30 30 31 32 33 35 37 39 40 40 40 41 41 41 41 42 42 42 42 40 39 37 36 36 34 31 29 28 29 29 30 31 31 32
16 17 19 21 22 23 25 28 25 26 28 30 32 33 34 35 36 37 38 40 41 43 44 45 46 46 45 45 44 44 44 44 43 43 41 39 37 36 35 34 32 29 28 27 27 26 26 26 26
Wind_Direction
152 118 73 34 32 62 78 81 85 85 78 79 81 81 81 79 78 84 72 74 73 65 57 42 32 35 40 43 42 40 37 34 33 35 38 40 39 36 33 30 28 26 29 33 37 41 41 41 42
198 196 220 360 10 78 98 91 77 70 65 60 56 55 61 63 60 65 64 76 76 68 59 44 33 34 36 36 35 34 30 24 23 26 29 33 34 31 27 25 24 23 22 25 29 33 36 36 38
222 219 227 273 334 53 125 112 93 75 58 42 25 19 26 29 25 17 19 31 46 45 40 30 23 23 23 23 21 22 20 16 12 13 17 21 23 20 16 14 16 16 12 9 11 15 19 22 25
238 238 238 249 280 291 216 153 129 119 89 39 4 352 356 359 355 348 344 346 348 342 337 338 346 352 356 2 6 6 4 359 353 350 350 352 355 357 357 356 357 358 355 349 346 347 349 351 355
240 242 239 243 265 273 265 215 171 148 115 32 359 352 348 342 338 332 331 331 329 323 324 330 337 339 341 345 351 352 347 341 337 333 330 331 332 332 333 332 331 332 332 332 328 326 325 324 324
239 241 238 238 244 251 260 259 244 218 46 19 2 4 0 348 336 329 325 324 322 319 321 330 336 338 337 335 332 330 327 324 324 322 322 323 325 324 320 316 314 313 314 314 313 311 311 311 311
234 242 240 237 241 247 257 271 284 289 325 357 355 4 16 17 358 346 339 333 325 320 322 327 330 330 327 322 318 313 311 310 308 304 304 307 310 311 311 307 306 305 305 304 301 299 299 301 303
232 241 243 243 247 255 268 280 286 284 133 109 52 8 9 8 353 346 339 333 327 324 324 323 320 320 318 314 310 306 305 303 301 297 295 295 297 301 303 303 303 303 303 302 299 295 293 292 293
229 238 243 248 252 259 275 286 284 257 182 143 80 356 336 327 326 323 320 317 313 311 310 308 307 306 305 304 303 301 300 299 298 295 294 292 292 293 296 298 299 300 300 299 297 295 293 290 289
224 233 240 246 253 262 275 289 291 269 224 223 257 297 311 315 314 311 308 305 301 298 295 293 293 293 294 294 294 294 294 294 294 293 293 291 290 289 290 292 293 293 293 292 291 290 289 288 285
221 230 239 245 251 259 271 283 287 283 273 273 279 286 296 302 305 304 303 300 296 294 292 290 289 288 288 288 288 288 289 290 290 290 289 289 287 287 287 288 288 288 286 285 283 282 282 282 281
222 230 240 247 251 255 262 270 277 282 284 287 290 293 294 295 295 297 299 298 296 294 292 290 289 288 286 284 283 284 284 285 285 285 284 284 283 282 282 282 283 283 282 280 277 275 274 274 274
230 232 242 249 253 255 257 263 270 277 283 286 289 290 291 291 292 293 295 296 295 292 291 289 288 286 284 283 281 281 280 280 281 281 281 280 279 278 278 277 277 278 277 276 274 272 269 268 268
239 239 244 250 254 256 259 262 268 274 279 282 283 284 284 286 288 290 292 293 292 292 291 289 287 285 283 281 280 280 279 279 279 279 279 279 278 276 276 276 276 276 276 274 273 271 270 269 269
241 243 245 248 250 254 259 264 270 274 277 278 279 279 279 281 283 285 288 290 291 292 291 288 285 284 283 283 282 282 282 282 282 281 280 280 279 277 276 276 275 274 275 277 275 275 275 273 270
239 242 245 249 253 257 262 266 269 272 274 275 275 275 276 278 281 285 289 292 294 294 292 289 287 287 286 286 286 285 285 285 285 283 282 282 282 280 278 276 277 276 276 277 277 276 276 274 272
240 243 247 252 256 259 263 265 267 269 270 271 271 272 274 277 282 288 293 295 296 295 294 292 290 290 289 289 290 289 288 287 285 284 283 282 281 281 280 280 278 277 276 276 276 276 275 273 273
242 245 249 253 257 261 263 265 266 266 266 266 268 270 274 278 285 291 295 298 299 298 296 295 293 294 295 295 294 295 295 294 292 289 287 285 283 281 280 279 278 277 276 275 274 274 273 272 273
242 246 249 253 256 259 262 263 264 264 263 265 267 270 273 279 287 293 296 298 298 298 297 296 296 297 299 299 300 300 301 300 297 294 291 288 285 283 281 280 279 278 276 275 274 273 272 272 271
243 246 248 250 252 254 256 259 261 262 262 264 265 268 275 282 290 294 297 298 298 297 296 297 299 302 304 306 306 306 305 304 301 298 295 291 287 283 281 279 278 277 276 275 274 273 272 271 271
247 249 250 252 254 255 257 258 261 264 267 270 273 277 282 287 292 294 295 295 293 294 297 300 303 307 309 309 309 309 308 308 306 304 301 296 292 287 283 279 277 275 275 274 274 273 272 271 270
259 259 259 260 260 260 261 260 259 264 269 273 276 280 284 287 289 289 287 284 287 292 296 301 304 305 305 306 308 310 311 313 313 311 307 302 297 291 285 281 278 276 275 274 274 273 272 271 270
266 269 269 270 268 266 263 264 264 262 263 268 273 277 280 280 280 278 277 281 287 291 293 296 296 296 298 302 308 313 316 319 320 320 317 311 305 298 290 283 278 275 274 274 274 273 272 271 270
275 279 280 280 278 275 274 274 273 269 269 270 273 274 274 274 273 273 278 283 285 286 287 287 287 288 292 298 305 311 316 320 323 324 324 320 313 305 297 288 281 276 274 273 273 273 272 270 270
287 290 290 290 288 282 281 282 281 278 277 275 273 273 273 273 274 277 278 279 277 277 278 279 281 285 291 297 304 308 312 316 319 322 325 325 320 313 305 294 286 279 275 273 272 271 270 269 269
285 289 290 291 288 283 282 283 285 280 277 275 275 276 276 276 276 274 272 271 271 272 276 280 286 292 299 304 308 311 313 315 317 319 322 325 324 319 313 302 291 283 278 275 272 270 268 267 267
293 290 292 292 290 285 280 280 279 280 281 281 280 281 280 278 276 274 274 275 276 280 285 291 297 302 306 309 310 311 312 313 315 317 319 322 323 322 318 311 301 290 283 278 274 270 267 265 265
301 297 294 295 296 291 283 280 279 281 287 290 291 291 290 288 286 285 285 286 288 291 293 297 300 303 305 306 308 308 309 311 312 314 315 318 320 321 319 315 308 300 293 286 279 274 269 266 264
305 303 299 297 298 299 297 291 291 290 290 291 292 292 292 292 291 291 291 291 293 294 296 298 299 301 302 303 305 305 306 308 309 311 312 314 315 317 318 316 311 305 301 295 287 279 273 268 264
308 306 303 301 302 301 303 300 298 295 292 291 290 290 290 290 290 291 291 292 292 293 294 296 297 298 299 300 302 303 304 305 306 307 308 309 311 313 315 315 311 307 304 301 294 285 277 270 264
Height
5916 5916 5917 5918 5918 5917 5916 5916 5915 5914 5915 5916 5916 5917 5917 5918 5919 5921 5919 5917 5916 5917 5916 5916 5916 5915 5914 5913 5913 5912 5912 5911 5911 5911 5910 5910 5909 5909 5908 5907 5906 5905 5905 5904 5903 5902 5901 5900 5899
5917 5918 5919 5919 5919 5918 5918 5918 5917 5917 5917 5917 5917 5918 5918 5918 5918 5919 5918 5917 5917 5917 5916 5916 5915 5914 5914 5913 5913 5912 5912 5911 5911 5911 5910 5910 5909 5909 5908 5907 5906 5905 5905 5904 5903 5902 5902 5901 5900
5917 5919 5920 5920 5920 5920 5920 5920 5919 5919 5919 5918 5918 5919 5920 5919 5919 5919 5918 5918 5917 5917 5916 5916 5915 5914 5913 5912 5912 5912 5911 5911 5911 5910 5910 5909 5908 5908 5907 5906 5906 5905 5904 5904 5903 5902 5901 5901 5900
5917 5919 5921 5921 5921 5921 5921 5922 5921 5920 5920 5920 5920 5920 5920 5920 5919 5919 5918 5918 5917 5917 5916 5915 5914 5913 5912 5912 5911 5911 5910 5910 5910 5909 5909 5908 5907 5907 5906 5905 5905 5904 5903 5903 5902 5901 5900 5900 5899
5917 5918 5920 5920 5921 5921 5921 5922 5922 5921 5921 5921 5921 5921 5920 5919 5919 5918 5918 5917 5917 5917 5916 5915 5914 5913 5912 5911 5910 5910 5909 5909 5909 5908 5908 5907 5906 5906 5905 5904 5903 5902 5901 5901 5900 5899 5898 5898 5897
5915 5917 5919 5919 5920 5921 5921 5921 5921 5921 5921 5921 5921 5921 5920 5920 5919 5918 5918 5917 5917 5916 5915 5914 5913 5912 5912 5911 5910 5909 5909 5908 5908 5908 5907 5906 5906 5905 5904 5903 5902 5901 5900 5899 5898 5897 5896 5895 5894
5914 5915 5917 5918 5919 5920 5921 5921 5921 5921 5921 5921 5921 5921 5920 5920 5919 5918 5917 5917 5916 5915 5914 5913 5912 5912 5911 5910 5910 5909 5908 5908 5907 5907 5906 5905 5905 5904 5903 5902 5901 5900 5898 5897 5896 5895 5894 5893 5892
5911 5913 5914 5916 5917 5918 5920 5920 5920 5920 5920 5920 5920 5920 5920 5920 5919 5917 5916 5916 5915 5914 5913 5912 5912 5911 5910 5909 5909 5908 5907 5907 5906 5905 5905 5904 5903 5902 5901 5900 5899 5898 5897 5895 5894 5893 5892 5891 5890
5908 5911 5912 5914 5915 5917 5917 5918 5918 5919 5919 5919 5919 5919 5919 5918 5917 5917 5915 5914 5913 5912 5911 5910 5910 5909 5908 5907 5907 5906 5905 5905 5904 5903 5902 5901 5900 5899 5898 5897 5896 5895 5894 5893 5892 5891 5890 5888 5887
5906 5908 5910 5912 5913 5914 5914 5915 5916 5917 5918 5919 5919 5919 5918 5916 5915 5915 5914 5912 5911 5910 5909 5908 5907 5906 5905 5904 5904 5903 5902 5901 5901 5900 5899 5898 5897 5895 5894 5893 5892 5892 5891 5889 5888 5887 5886 5885 5884
5903 5905 5907 5909 5911 5911 5912 5912 5913 5914 5916 5917 5918 5918 5917 5915 5913 5912 5910 5909 5908 5906 5905 5904 5903 5902 5901 5900 5899 5898 5898 5897 5896 5895 5894 5893 5892 5890 5889 5888 5887 5886 5885 5884 5883 5882 5881 5880 5879
5902 5902 5904 5907 5909 5909 5909 5910 5911 5912 5913 5914 5915 5915 5915 5913 5911 5908 5906 5905 5903 5901 5900 5899 5898 5897 5896 5895 5894 5893 5892 5891 5889 5888 5887 5887 5885 5884 5883 5882 5881 5879 5878 5877 5876 5876 5875 5874 5873
5900 5901 5902 5905 5906 5907 5907 5907 5908 5909 5910 5910 5911 5911 5910 5909 5907 5905 5902 5900 5898 5896 5894 5892 5891 5890 5889 5887 5886 5886 5885 5884 5882 5881 5880 5878 5877 5876 5875 5874 5873 5872 5870 5869 5868 5867 5867 5866 5865
5897 5899 5900 5901 5901 5902 5903 5903 5905 5906 5906 5906 5906 5906 5905 5903 5902 5900 5898 5895 5893 5890 5888 5886 5884 5882 5881 5880 5879 5878 5877 5876 5874 5873 5871 5869 5868 5867 5865 5865 5864 5863 5861 5860 5859 5859 5858 5858 5857
5892 5895 5896 5896 5895 5896 5898 5900 5901 5901 5901 5901 5900 5900 5898 5897 5895 5894 5892 5889 5887 5884 5882 5880 5878 5876 5874 5872 5871 5870 5868 5867 5866 5864 5862 5860 5858 5857 5856 5855 5855 5854 5852 5851 5851 5850 5850 5849 5849
5886 5889 5890 5889 5890 5892 5895 5896 5897 5895 5895 5894 5893 5892 5891 5890 5888 5886 5885 5883 5880 5878 5876 5873 5871 5869 5867 5866 5864 5862 5861 5859 5857 5855 5853 5851 5849 5847 5847 5846 5846 5845 5843 5843 5842 5842 5841 5841 5840
5880 5882 5883 5884 5885 5886 5888 5889 5890 5889 5888 5887 5886 5885 5884 5883 5881 5879 5878 5876 5874 5871 5869 5867 5865 5863 5861 5859 5857 5855 5853 5852 5849 5847 5845 5843 5841 5839 5838 5837 5837 5836 5835 5834 5833 5833 5832 5832 5832
5874 5875 5876 5878 5878 5879 5880 5881 5882 5881 5880 5880 5879 5879 5878 5876 5875 5873 5871 5869 5866 5864 5862 5860 5858 5856 5854 5852 5850 5848 5846 5844 5841 5839 5837 5834 5832 5830 5829 5828 5827 5826 5825 5824 5823 5823 5822 5822 5822
5868 5869 5870 5871 5871 5872 5872 5873 5873 5873 5874 5874 5873 5873 5872 5871 5869 5868 5865 5862 5860 5857 5854 5852 5851 5849 5847 5845 5842 5840 5838 5835 5833 5830 5828 5825 5823 5821 5819 5818 5816 5815 5815 5814 5813 5812 5812 5812 5812
5863 5864 5865 5865 5865 5866 5866 5866 5866 5866 5866 5867 5867 5866 5866 5865 5864 5861 5859 5856 5853 5850 5848 5846 5844 5842 5839 5837 5834 5832 5830 5827 5824 5821 5818 5816 5813 5812 5810 5808 5807 5805 5805 5804 5803 5802 5802 5802 5802
5860 5860 5860 5860 5861 5861 5861 5861 5861 5860 5860 5860 5860 5860 5859 5858 5857 5855 5852 5849 5846 5844 5841 5839 5837 5835 5832 5830 5828 5825 5822 5819 5816 5813 5809 5806 5803 5801 5799 5798 5797 5796 5795 5794 5794 5792 5792 5792 5792
5857 5857 5857 5856 5857 5857 5857 5856 5857 5855 5855 5854 5853 5853 5853 5852 5851 5849 5846 5844 5841 5839 5836 5833 5831 5829 5827 5824 5822 5819 5816 5813 5809 5805 5801 5796 5792 5790 5787 5786 5785 5784 5784 5783 5783 5782 5782 5782 5782
5854 5853 5852 5852 5851 5851 5851 5850 5852 5852 5851 5850 5849 5848 5847 5847 5845 5843 5841 5839 5836 5833 5831 5828 5826 5824 5821 5819 5816 5813 5810 5806 5802 5798 5793 5788 5783 5779 5776 5774 5773 5772 5772 5771 5771 5771 5771 5771 5771
5851 5850 5849 5847 5847 5846 5845 5845 5846 5845 5845 5845 5844 5843 5842 5841 5839 5838 5836 5834 5831 5828 5825 5823 5821 5819 5816 5813 5810 5807 5804 5800 5796 5792 5787 5781 5775 5770 5766 5764 5762 5760 5760 5759 5759 5759 5760 5760 5760
5849 5848 5846 5845 5844 5843 5842 5841 5842 5841 5840 5840 5839 5838 5837 5835 5834 5832 5830 5828 5825 5822 5819 5817 5815 5813 5810 5807 5804 5800 5796 5792 5789 5784 5779 5774 5768 5763 5757 5754 5751 5749 5748 5748 5747 5748 5748 5749 5749
5846 5845 5845 5843 5841 5840 5839 5838 5839 5837 5836 5835 5834 5832 5831 5829 5828 5826 5824 5821 5818 5815 5813 5810 5807 5804 5801 5798 5795 5791 5788 5784 5780 5776 5772 5767 5761 5755 5750 5745 5742 5739 5738 5737 5736 5736 5737 5737 5738
5843 5842 5841 5839 5838 5837 5836 5835 5834 5831 5830 5829 5827 5826 5824 5823 5821 5818 5816 5813 5810 5806 5803 5800 5797 5794 5791 5788 5785 5782 5779 5775 5772 5768 5763 5759 5753 5748 5743 5738 5734 5730 5728 5727 5726 5725 5725 5726 5726
5840 5839 5837 5836 5833 5832 5832 5830 5828 5827 5825 5823 5820 5818 5816 5814 5812 5809 5806 5803 5800 5796 5793 5790 5787 5784 5782 5779 5776 5773 5770 5766 5763 5759 5755 5751 5746 5741 5735 5730 5726 5722 5720 5717 5716 5715 5715 5715 5715
5837 5836 5834 5832 5830 5828 5826 5827 5824 5822 5819 5816 5813 5811 5808 5805 5802 5799 5796 5793 5790 5786 5783 5780 5777 5774 5772 5769 5767 5764 5760 5757 5754 5750 5747 5743 5738 5733 5728 5723 5719 5715 5712 5709 5707 5706 5705 5705 5705
5834 5832 5830 5828 5826 5823 5821 5820 5817 5815 5812 5809 5806 5802 5799 5795 5792 5788 5785 5782 5779 5775 5772 5769 5766 5763 5760 5758 5756 5753 5750 5747 5744 5741 5738 5735 5731 5726 5721 5717 5712 5709 5705 5702 5700 5698 5696 5696 5696